Theta_e
332 334 336 346 347 346 346 346 347 346 344 344 344 345 344 344 343 343 345 345 344 345 345 344 344 343 344 344 344 344 344 344 343 346 348 347 348 347 348 346 346 345 344 344 344 346 345 344 344 343 342 342 341 341 342 342 342 342 342 339 336 337 338 338 338 338 337 338 339 340 340 340 340 338 337 337 339 338 337 337 336 334 334 336 338
333 335 335 338 345 346 346 345 346 345 344 344 345 344 343 343 343 343 343 343 343 343 343 343 342 343 342 343 342 343 343 343 343 344 346 347 347 347 346 346 346 345 344 343 343 343 344 344 344 343 343 341 342 341 341 341 341 340 339 338 337 337 338 338 337 337 336 337 339 338 338 339 340 339 339 338 337 335 336 336 337 333 331 335 336
336 337 335 338 346 347 346 344 344 343 344 345 344 344 343 342 342 342 342 342 341 340 341 340 343 342 342 341 341 342 343 345 345 344 345 347 346 346 346 346 345 344 343 342 344 344 345 344 344 343 342 341 341 341 340 340 340 340 339 337 336 337 336 336 336 335 336 336 336 335 336 337 337 338 339 338 338 336 335 335 334 335 331 335 333
336 337 335 340 345 346 346 344 344 343 344 345 344 343 342 341 340 340 341 341 340 343 343 342 342 342 342 342 342 343 344 344 344 344 346 346 346 346 345 345 345 344 343 342 342 344 344 344 344 343 341 341 340 340 340 340 340 340 339 336 336 335 335 335 335 335 335 335 334 332 330 327 331 335 337 337 338 337 336 335 335 335 336 335 337
337 337 336 337 339 344 346 345 343 343 344 343 343 342 341 341 341 340 340 340 341 342 342 342 343 342 342 345 346 345 345 345 345 345 345 344 345 345 345 345 344 344 343 342 341 341 343 343 343 342 340 340 339 339 340 340 340 340 338 336 336 335 335 335 335 335 335 334 333 329 324 326 326 335 336 338 337 335 334 335 335 335 335 335 335
337 337 338 338 338 341 345 345 343 343 343 342 342 341 341 341 341 339 339 340 340 343 343 343 342 343 344 344 344 344 344 344 343 344 344 344 344 344 343 344 344 344 343 344 341 340 340 342 341 341 339 339 339 339 340 341 341 339 338 336 336 335 335 335 334 334 333 332 330 324 323 325 327 332 336 337 335 335 336 335 335 335 335 335 335
338 337 339 338 338 340 344 345 343 343 342 341 341 340 340 341 341 341 339 339 341 341 341 343 343 344 344 344 344 344 344 344 344 344 343 343 345 345 345 344 344 344 344 343 343 341 340 339 340 340 339 339 339 339 340 340 340 337 338 337 336 335 334 333 333 333 331 327 322 322 323 325 327 328 335 336 336 335 334 336 336 336 336 336 335
336 338 338 338 337 342 344 346 344 342 341 341 341 341 341 341 341 341 341 340 341 342 342 343 343 345 346 345 344 343 343 344 344 344 344 344 344 344 344 344 344 343 341 340 341 342 340 340 339 338 339 338 338 339 340 339 340 338 336 336 336 335 334 334 333 332 330 323 322 322 323 324 325 328 334 334 333 333 334 334 334 333 334 334 333
334 337 338 337 337 342 344 345 343 342 341 341 340 340 341 340 340 341 340 340 340 342 344 343 345 346 346 346 345 345 345 345 345 344 344 344 344 344 344 343 342 342 341 341 341 341 339 339 337 337 338 338 338 338 339 339 339 338 336 336 336 335 334 333 332 330 326 324 323 324 323 323 324 327 332 333 334 333 332 331 332 332 332 331 330
334 337 337 337 337 341 343 344 344 341 340 340 339 340 340 342 342 339 339 340 341 341 342 342 343 344 344 344 345 345 345 345 344 344 344 344 344 343 343 342 343 342 342 342 341 341 338 338 336 336 337 337 337 337 337 338 338 338 336 335 336 335 333 332 330 329 322 322 322 323 329 333 324 327 330 332 332 333 331 332 332 332 331 331 331
335 337 337 337 338 341 344 346 345 343 341 341 340 340 339 344 344 341 340 341 342 342 343 344 343 344 345 345 345 345 345 344 343 342 342 342 341 342 341 341 341 340 340 340 340 339 338 337 336 335 336 337 336 336 336 336 337 337 336 335 335 334 332 330 327 322 322 322 323 322 327 333 324 325 333 332 332 332 333 333 332 331 331 332 331
335 336 337 338 343 341 344 345 344 343 342 340 340 340 339 341 343 343 342 344 344 344 344 343 343 345 345 345 344 344 343 342 342 342 341 341 341 341 341 340 340 339 338 338 337 338 338 336 335 335 335 336 335 335 336 335 336 336 335 335 334 333 331 329 322 320 320 321 322 324 322 324 325 328 332 332 331 332 331 330 331 331 331 332 332
334 335 337 337 338 340 342 343 342 342 342 339 339 340 341 343 343 343 343 343 344 343 343 342 343 344 344 344 343 343 342 342 342 341 341 341 340 341 340 340 338 337 337 337 337 337 337 336 335 334 335 335 334 335 334 334 335 336 335 334 333 332 331 328 321 321 321 321 322 322 321 322 325 332 332 332 331 331 331 331 330 331 331 331 331
333 335 336 338 338 343 339 340 341 342 342 341 340 341 343 343 343 344 343 343 343 342 341 341 343 343 343 343 342 342 341 341 340 340 340 340 339 339 339 338 337 337 337 337 337 336 335 335 334 334 334 333 333 334 333 333 334 334 334 334 333 331 329 328 326 320 321 320 322 322 321 324 324 331 332 333 332 330 331 331 331 331 331 330 330
333 334 335 337 338 338 342 338 340 339 341 342 343 344 343 343 343 344 343 343 342 341 341 341 341 342 341 341 341 341 340 340 339 339 339 339 339 339 338 338 338 338 337 337 336 335 335 334 334 333 332 332 332 333 333 333 332 332 332 332 331 329 327 323 323 320 321 322 321 322 323 324 332 330 330 331 332 332 331 330 330 330 330 329 329
334 334 335 335 335 335 337 340 336 335 338 340 341 342 343 343 343 343 342 342 341 340 340 340 340 340 340 340 340 340 339 339 339 339 340 338 339 339 338 337 336 336 337 336 336 335 334 334 333 332 331 331 332 332 332 332 332 332 332 332 329 328 325 323 321 318 318 320 320 322 323 326 331 331 330 330 330 330 330 330 330 329 328 328 328
334 334 333 331 331 331 334 336 334 333 334 336 337 339 342 343 343 343 342 342 342 341 340 340 341 340 340 341 340 340 340 339 339 339 339 338 338 337 336 336 336 337 337 337 336 335 334 333 333 331 331 331 331 331 331 331 331 332 333 331 329 326 324 322 320 317 317 320 321 322 324 327 333 330 330 331 330 330 330 330 329 329 328 329 328
332 332 332 330 329 329 332 333 334 334 333 334 333 337 340 342 341 341 341 341 341 341 341 342 342 342 341 341 342 341 341 340 340 339 339 338 338 337 338 337 337 336 336 336 336 335 334 333 332 331 330 330 330 330 331 331 331 332 330 328 326 325 324 322 316 316 317 322 317 322 323 335 334 334 331 330 329 329 329 329 330 329 329 328 328
330 331 331 330 329 328 329 332 332 333 332 332 331 334 334 337 338 338 339 339 339 339 340 339 339 339 339 338 338 337 336 337 337 338 337 336 335 334 336 337 337 336 335 336 335 334 334 333 332 331 330 330 330 330 331 332 330 330 329 327 323 321 320 319 315 314 316 316 317 318 321 335 333 333 333 330 329 328 329 331 332 332 332 329 329
328 329 329 328 328 328 328 331 332 332 331 331 331 330 332 332 334 335 336 337 337 337 336 334 333 333 333 333 331 331 330 331 330 332 333 335 334 330 332 335 335 335 335 336 336 335 333 332 332 331 331 330 330 330 331 330 330 329 328 326 321 319 316 314 314 313 313 316 318 318 329 332 332 333 333 332 330 330 330 331 331 332 332 333 333
328 328 328 327 327 327 327 329 331 332 332 331 331 330 331 330 331 331 332 334 334 334 333 328 325 325 326 325 327 327 327 328 328 328 327 328 326 327 331 335 335 335 335 335 335 335 334 333 332 331 331 330 331 329 327 328 330 329 326 321 318 315 314 314 313 315 314 316 319 317 331 330 331 332 331 332 332 332 331 332 332 332 332 332 332
325 326 327 328 327 326 326 327 329 330 331 331 332 331 329 331 331 331 332 331 330 329 328 327 330 325 323 325 326 326 326 325 325 330 326 326 326 325 329 333 335 334 335 335 334 334 334 333 332 331 331 331 327 315 315 319 322 325 322 318 315 312 314 313 313 313 314 313 316 321 330 329 330 331 331 331 332 332 331 332 332 332 332 332 332
322 325 326 327 328 327 326 326 327 329 329 329 331 330 329 328 329 330 330 328 330 329 327 327 325 325 324 325 324 325 325 324 325 325 326 322 326 325 328 331 332 331 333 333 333 333 333 333 332 332 332 330 318 313 312 312 312 317 316 314 312 313 313 313 314 313 314 313 315 325 330 328 328 329 331 331 330 330 330 330 330 330 331 332 332
323 325 326 328 328 327 326 326 327 327 328 328 329 329 329 328 329 329 328 327 327 327 326 326 325 325 325 324 324 324 324 325 328 328 327 325 325 323 326 327 328 328 329 330 331 332 333 333 333 332 328 323 315 313 314 315 314 312 313 313 313 313 313 313 313 314 313 315 315 324 331 329 328 328 331 330 330 331 330 331 331 332 333 333 332
323 323 324 326 328 328 327 326 327 326 327 327 327 328 328 327 328 328 327 326 326 325 326 325 325 325 324 324 323 321 322 323 325 324 324 324 324 325 326 326 325 325 324 321 318 317 319 315 315 315 312 313 314 316 314 316 315 313 313 312 312 312 312 311 312 312 313 314 315 323 328 329 328 329 330 330 330 330 331 331 331 332 333 332 332
319 321 322 324 327 329 328 327 327 326 327 327 327 328 328 327 327 328 327 326 326 325 325 325 325 325 324 324 323 323 322 323 323 323 323 323 323 323 324 325 324 323 322 321 318 317 317 314 314 314 314 312 314 315 315 314 313 312 312 312 312 312 312 312 311 312 314 315 318 321 326 329 328 329 329 330 331 331 330 331 332 332 332 332 332
320 321 323 323 327 329 329 328 327 327 327 327 327 326 327 327 327 327 327 326 326 325 325 325 325 325 324 323 323 321 322 323 322 321 321 321 322 322 322 323 322 322 322 321 319 317 316 315 314 316 313 313 314 314 313 313 312 313 311 312 311 313 311 311 310 311 314 316 319 319 324 328 328 328 327 330 331 330 330 331 330 331 331 331 331
320 321 322 323 323 328 329 328 327 327 327 328 327 326 327 326 326 325 326 325 325 325 325 325 325 325 324 324 323 323 323 323 322 321 321 320 321 321 321 322 322 322 323 321 320 317 316 316 316 315 314 315 315 316 315 314 313 311 312 311 311 313 311 311 312 314 317 318 320 319 321 326 330 327 329 329 331 331 330 329 329 331 330 331 331
320 320 322 322 322 325 327 327 328 327 328 328 326 325 326 325 325 325 325 324 325 326 326 325 325 325 325 324 323 323 323 323 323 322 320 320 320 319 319 320 320 321 321 319 319 317 317 317 316 317 317 316 314 316 313 314 313 314 314 314 312 311 313 314 314 313 315 317 319 319 320 323 327 328 328 328 330 329 329 328 328 329 330 330 329
321 321 321 323 324 324 324 325 327 327 328 328 327 325 325 324 325 325 326 323 325 325 324 324 325 325 325 324 323 324 323 323 323 322 320 320 320 319 318 319 319 320 319 319 317 317 317 316 316 316 317 316 316 317 313 315 314 313 313 316 316 317 318 317 316 315 317 318 317 318 317 322 326 328 327 327 328 327 327 327 327 328 328 329 330
321 321 321 322 323 323 324 324 325 326 327 327 326 325 325 324 324 325 326 325 325 325 324 323 324 325 326 325 324 322 323 323 323 322 320 320 320 319 319 319 319 319 319 320 317 317 317 317 317 316 315 316 317 315 313 315 315 314 311 314 317 318 319 318 317 317 317 319 319 319 318 319 323 326 326 328 327 326 326 326 326 327 327 329 330
319 320 321 322 323 323 324 324 324 325 325 326 325 325 324 323 323 324 325 325 325 325 324 323 322 325 325 325 325 323 322 323 323 322 321 320 320 320 320 319 319 319 318 320 317 316 317 316 315 315 315 316 316 313 313 314 314 314 313 314 316 318 319 319 318 316 317 319 318 316 317 318 319 322 325 327 326 325 325 324 325 325 326 327 329
320 321 322 322 323 323 324 324 325 324 324 325 324 324 323 323 322 323 323 324 324 324 324 323 323 324 325 325 325 324 322 322 322 322 320 320 320 319 319 319 320 319 318 318 317 316 315 313 314 311 313 314 315 315 312 312 313 314 313 315 315 317 319 317 316 315 314 315 313 313 315 317 316 318 320 323 326 325 325 324 324 325 325 326 326
319 321 321 321 323 324 325 325 325 324 324 325 324 323 322 322 322 322 322 322 323 323 323 323 322 323 324 325 324 324 323 322 321 321 321 320 320 319 319 318 318 318 318 317 316 316 316 314 315 312 314 314 315 315 312 314 313 313 313 315 313 317 318 318 317 317 314 315 312 316 317 316 313 315 313 319 321 324 324 324 323 323 323 323 324
320 320 321 322 322 323 324 325 324 324 323 324 323 323 322 322 322 322 322 322 322 322 323 323 322 323 323 324 324 323 322 323 322 322 321 320 320 320 319 320 319 318 317 317 318 316 315 315 314 314 314 312 313 315 314 315 314 315 315 315 315 315 312 316 317 315 313 312 315 314 313 311 310 312 311 310 314 317 322 322 322 322 322 323 324
321 321 321 322 322 323 323 324 324 324 324 324 324 324 322 322 322 321 322 321 321 321 322 323 323 322 322 323 324 323 322 322 322 321 321 320 321 320 320 320 319 319 319 318 317 317 316 315 315 316 314 314 314 315 314 314 314 315 315 314 315 315 314 312 314 314 314 314 314 315 312 310 310 309 309 307 309 311 317 320 320 320 321 322 323
324 322 321 321 322 322 322 323 323 324 324 324 324 324 323 322 322 321 322 321 322 322 322 322 322 322 322 322 322 323 322 322 322 321 321 320 320 320 321 320 320 319 319 318 317 318 317 317 316 315 316 316 314 315 315 313 314 314 314 313 314 314 314 313 313 314 314 314 312 313 312 310 308 307 307 307 309 309 312 315 317 317 318 321 323
325 324 323 322 322 322 322 323 324 324 324 324 323 323 323 322 322 322 320 321 322 322 322 322 322 322 322 321 322 322 322 322 322 321 321 321 321 321 321 321 320 319 319 318 318 319 318 318 317 315 316 316 315 315 315 315 313 314 312 312 313 312 313 313 314 310 313 312 312 313 314 311 308 307 307 307 307 307 307 311 312 311 311 315 319
326 325 324 323 323 322 321 321 322 323 323 323 323 323 323 322 322 321 321 321 322 322 322 322 322 322 322 322 321 322 322 323 323 322 321 321 320 320 320 320 320 319 319 318 318 318 317 317 317 317 315 317 317 316 316 315 314 312 312 312 312 312 313 313 312 311 312 313 312 312 311 310 309 307 306 306 305 306 305 302 302 301 304 310 314
326 326 324 323 322 322 321 321 321 323 323 323 322 322 321 321 320 319 319 320 321 320 322 322 322 322 323 322 322 322 323 322 323 323 322 321 321 320 320 320 320 320 319 318 318 317 317 317 316 317 316 314 314 315 314 313 312 309 310 310 309 308 309 310 311 312 312 312 312 312 312 310 309 308 306 305 305 305 303 302 300 301 300 305 309
325 325 324 324 323 323 321 320 321 322 322 321 321 321 320 320 320 320 320 321 320 321 321 322 322 322 322 323 322 322 323 322 322 323 322 320 321 321 320 320 320 320 320 319 319 319 319 319 318 316 316 314 314 313 313 312 311 310 307 308 310 310 310 309 312 312 312 314 314 313 312 310 309 308 306 305 305 304 302 301 300 299 298 297 300
324 325 324 324 324 323 322 322 321 321 322 322 322 321 321 321 320 320 321 321 320 319 321 322 322 323 322 322 322 322 323 323 321 322 322 322 321 321 321 320 320 320 320 321 320 317 318 319 318 315 314 316 315 314 314 313 307 310 308 307 306 309 310 309 311 312 311 311 312 312 311 311 309 307 306 306 304 303 302 301 299 297 295 294 293
324 324 325 325 324 324 324 323 322 322 322 322 322 321 322 322 322 321 321 320 322 322 322 322 322 322 322 322 322 322 323 323 323 321 322 322 322 321 321 321 321 320 319 320 320 319 319 318 318 317 315 311 314 313 314 315 312 304 303 306 302 303 305 306 308 310 311 310 311 311 311 310 309 307 306 305 304 303 303 302 299 297 295 293 293
323 323 324 324 325 324 325 324 323 323 322 322 320 322 322 322 322 321 321 321 320 320 320 320 321 321 322 322 322 322 322 323 323 322 322 323 322 321 321 321 321 321 320 320 320 319 319 319 318 318 318 315 312 313 314 315 313 310 307 310 303 299 299 304 307 306 309 311 311 312 311 310 307 305 304 305 304 303 303 301 300 297 294 293 293
322 323 323 324 325 325 325 325 325 324 323 322 321 321 320 317 318 316 316 316 316 316 317 319 320 320 321 321 322 322 322 322 323 323 321 322 322 322 321 321 321 321 321 320 320 320 321 320 320 318 318 317 315 313 313 313 314 316 313 305 304 303 304 299 301 306 306 307 309 311 309 308 306 304 304 303 302 303 302 301 298 294 294 293 293
322 323 324 325 325 325 325 325 325 325 324 323 322 321 320 320 318 318 317 317 318 317 317 318 319 319 320 322 322 322 322 322 323 323 323 321 322 322 321 321 321 321 321 321 321 321 321 320 320 320 319 319 318 314 313 310 314 314 315 315 312 308 303 299 303 303 307 308 309 310 309 307 306 304 303 302 301 301 301 300 296 294 293 293 293
323 324 324 324 324 325 325 325 325 325 325 324 323 321 321 321 320 319 319 318 318 319 321 321 321 321 321 321 322 322 323 322 322 323 323 322 322 322 321 321 320 321 320 321 320 321 321 321 321 320 320 319 318 315 314 313 308 312 313 313 307 301 304 305 303 299 303 308 308 309 308 307 305 305 303 302 301 300 299 298 295 294 293 293 291
322 323 323 323 323 324 324 324 325 323 325 325 323 322 322 321 320 320 320 320 319 320 320 321 321 320 321 321 321 322 322 323 323 323 323 323 322 322 322 321 320 320 320 320 321 321 321 322 321 321 321 320 318 317 316 314 313 313 312 312 310 305 304 303 303 308 302 302 306 308 308 308 304 304 304 302 301 301 299 296 295 294 293 292 290
320 321 322 323 324 324 323 323 324 324 323 323 323 323 322 323 322 321 320 320 321 321 318 317 320 319 320 321 321 322 322 322 323 323 323 324 321 321 322 321 321 321 318 320 320 321 321 321 320 320 320 320 319 319 318 315 315 315 309 311 311 310 307 307 304 304 302 301 304 306 304 302 303 303 303 303 302 301 299 297 295 294 293 292 290
320 320 321 321 322 322 322 321 323 324 324 323 323 323 323 322 322 322 321 321 321 321 317 319 318 318 320 321 321 321 322 322 323 323 324 324 324 322 322 322 322 321 318 319 320 320 320 321 321 321 320 320 320 319 318 318 316 316 314 313 311 310 309 310 309 308 303 305 304 304 306 303 301 303 302 301 301 301 299 297 294 293 293 292 290
314 316 318 319 320 320 321 320 322 324 323 323 322 323 323 322 322 322 322 321 321 320 319 319 319 317 319 320 320 321 321 322 322 323 324 324 324 323 323 323 323 321 320 320 320 320 320 321 321 321 320 320 320 320 317 318 317 316 315 315 313 313 312 312 311 310 309 301 300 301 305 305 305 303 301 301 301 300 299 297 295 293 292 291 290
Wind_Speed
3 4 3 4 6 10 10 11 12 12 11 10 11 13 12 12 12 11 13 14 13 12 13 13 13 13 13 14 15 15 15 15 15 16 16 17 17 18 17 18 18 19 18 18 18 19 19 19 19 21 21 21 20 18 18 17 17 17 18 18 18 18 19 19 19 19 19 21 20 18 18 18 18 19 19 18 18 16 14 16 13 10 8 13 19
7 3 3 2 5 10 10 9 11 12 11 11 11 10 10 13 12 12 11 12 12 12 13 11 12 13 13 14 15 15 15 16 15 16 17 17 18 18 18 18 19 19 18 18 18 18 18 19 20 20 20 19 18 18 17 17 16 16 16 17 17 18 19 18 18 17 16 16 16 16 19 19 19 18 19 18 18 18 13 15 15 8 6 16 18
6 5 3 1 4 9 10 10 10 10 12 12 12 13 13 12 12 11 11 12 12 12 11 11 13 14 14 14 15 15 16 16 15 15 17 17 17 17 18 19 19 18 18 18 18 18 18 19 20 19 19 18 18 16 15 14 14 14 15 16 17 18 18 18 18 17 16 16 16 14 13 16 18 18 18 18 18 18 15 17 17 15 10 17 15
8 4 2 1 5 8 9 11 11 9 12 12 12 13 12 12 11 10 11 11 12 14 13 14 14 14 14 14 15 15 15 16 16 15 17 17 17 17 19 19 19 18 18 18 18 18 18 18 19 18 18 16 15 14 14 14 14 14 16 16 17 17 17 17 16 15 14 14 15 11 6 5 10 18 18 17 17 18 15 18 18 18 19 17 19
7 4 3 3 4 6 8 10 11 11 12 13 13 13 12 12 12 11 11 11 13 13 13 14 14 13 14 16 15 15 15 15 15 16 15 16 16 17 17 18 18 18 18 18 17 17 17 17 17 16 15 14 14 14 14 14 15 17 17 17 16 17 17 16 15 14 13 13 12 7 5 5 4 16 17 18 17 15 15 17 17 17 16 17 17
6 4 4 4 4 5 8 9 12 13 12 13 13 12 12 12 13 12 11 12 13 14 14 14 13 14 15 15 15 15 15 15 16 15 15 15 15 15 16 16 16 17 17 18 17 16 16 16 15 15 14 13 13 14 14 15 15 17 17 17 16 17 16 15 14 13 11 11 8 5 6 6 5 9 18 16 16 15 16 16 17 16 16 18 17
8 4 5 5 4 5 7 10 14 13 12 12 11 12 12 12 13 13 11 11 13 12 13 14 14 13 14 14 14 15 15 15 15 15 15 15 16 15 16 16 16 16 17 16 16 15 15 14 14 14 13 13 13 13 14 15 16 17 17 16 16 16 15 14 12 10 9 6 5 5 6 6 5 4 16 15 16 16 16 17 16 16 16 16 17
6 5 5 4 4 5 8 10 13 14 13 12 12 12 11 11 11 13 12 10 13 14 14 14 14 13 13 14 14 14 14 14 15 15 14 14 15 15 16 16 17 17 16 15 15 15 14 14 13 13 12 12 13 13 15 16 17 17 18 18 17 16 15 13 11 10 9 4 4 4 5 5 5 4 14 15 16 15 15 15 16 15 15 15 13
6 6 5 4 4 8 8 7 13 13 13 13 12 12 12 11 9 12 13 11 12 14 13 13 14 14 14 13 14 15 16 15 15 14 14 14 15 15 15 15 16 16 15 15 14 14 13 13 13 12 12 12 12 13 14 15 16 17 17 17 17 16 14 12 11 9 5 3 3 4 3 3 4 5 12 15 16 15 15 11 11 15 16 13 14
6 6 5 3 4 8 8 7 11 14 13 12 11 11 13 11 8 9 12 12 11 12 13 13 13 13 14 14 15 15 15 16 15 14 14 14 14 15 15 15 15 16 15 15 14 13 12 12 12 12 11 11 12 12 14 15 15 16 16 17 17 15 13 12 10 6 4 4 4 4 4 5 3 5 11 14 15 14 13 8 8 5 8 14 15
7 6 5 5 5 8 10 9 8 12 14 13 12 12 12 11 9 8 11 12 12 12 12 12 12 13 14 14 14 15 15 15 15 14 14 14 14 14 15 14 15 15 15 14 13 13 12 12 12 11 11 11 11 12 13 14 14 14 15 15 15 14 13 11 8 5 5 6 6 6 6 7 4 4 12 13 14 12 9 9 8 13 15 15 15
7 6 5 5 10 9 10 9 8 10 11 12 12 12 11 11 10 11 11 12 12 12 11 12 13 14 15 15 15 15 15 15 14 14 14 14 14 14 14 14 15 14 13 13 13 12 12 12 11 11 11 11 11 11 12 13 13 13 13 13 12 12 11 10 5 5 5 5 5 4 5 4 3 5 13 13 12 12 11 12 11 12 14 15 14
7 6 6 5 5 8 9 9 9 10 10 11 11 12 11 11 11 11 12 11 12 12 11 11 13 14 14 14 14 14 14 15 14 14 14 14 13 14 14 14 13 13 12 12 12 12 12 12 11 11 10 10 10 10 12 13 13 12 13 13 12 11 8 8 5 5 4 4 3 4 4 4 4 10 12 12 11 11 12 12 12 11 11 13 14
6 6 6 5 5 11 9 9 7 9 10 11 11 11 12 11 12 12 11 12 12 13 12 12 13 13 14 14 14 14 14 13 13 13 13 13 13 13 13 13 13 13 13 12 12 12 11 11 11 10 10 9 9 10 11 12 12 12 12 11 10 8 9 6 6 4 4 4 3 3 3 3 3 9 11 11 11 11 10 11 11 11 11 11 11
9 7 6 5 5 5 7 9 7 8 8 9 10 11 11 11 12 13 12 12 12 12 12 12 12 13 13 13 13 13 13 13 12 12 12 12 12 12 12 12 13 12 12 12 11 11 11 11 11 10 9 9 8 9 10 10 10 11 10 10 9 6 6 4 4 3 3 3 3 4 4 4 7 8 9 10 10 9 9 10 9 10 9 9 9
11 8 6 5 5 4 4 7 8 7 8 9 9 9 10 11 11 13 13 13 13 12 12 11 12 12 12 12 12 13 12 12 13 12 11 12 12 12 12 12 11 11 11 11 11 11 11 10 10 9 9 8 8 8 9 9 8 8 8 8 8 6 5 4 4 3 3 4 3 3 3 3 6 9 8 8 8 8 8 8 8 7 6 6 7
8 8 7 5 5 4 5 5 6 8 8 9 8 8 9 9 11 12 11 11 10 11 11 11 11 12 11 10 10 11 12 12 12 12 11 12 12 11 11 11 11 11 11 11 10 10 10 10 9 9 8 8 7 7 7 7 7 6 7 7 7 6 5 4 3 3 3 2 3 3 4 4 5 6 7 7 7 6 6 6 5 4 5 5 5
8 9 8 7 4 4 5 5 6 5 5 7 8 8 9 9 10 9 9 10 10 10 9 8 9 11 9 8 9 10 10 10 9 10 10 11 9 8 9 11 11 11 11 10 9 9 9 9 8 8 7 7 6 6 5 5 6 6 6 7 7 6 6 4 3 2 2 2 2 1 2 4 6 5 5 5 5 5 4 3 4 4 4 4 3
7 7 7 7 6 5 5 5 5 5 5 5 4 6 8 7 8 9 9 10 9 8 9 10 10 10 10 9 9 10 10 10 10 10 10 9 8 8 8 9 10 10 10 10 9 8 8 8 7 6 6 5 5 4 4 4 4 5 5 5 7 6 6 4 3 2 2 2 1 2 2 3 4 3 3 4 4 3 3 4 4 4 3 3 4
7 6 6 6 6 6 5 6 6 5 4 4 4 4 6 9 10 10 10 10 9 9 10 9 9 10 10 10 9 8 8 8 10 8 10 10 8 6 7 6 9 9 9 9 8 8 7 7 6 6 5 4 4 3 2 2 3 4 5 5 6 5 4 3 2 2 2 1 1 0 2 3 2 3 3 3 2 2 3 3 3 3 3 4 4
5 7 7 6 6 7 6 6 5 6 6 5 5 4 4 8 9 11 11 11 10 10 10 9 9 9 9 9 8 6 5 5 6 5 8 6 8 8 7 7 8 8 8 7 7 7 7 6 6 5 4 3 1 1 2 3 4 4 5 5 5 4 2 2 1 1 1 2 1 1 1 2 4 1 1 2 2 3 3 4 4 4 4 5 5
7 7 6 7 6 6 7 7 6 6 6 6 4 4 3 5 5 6 6 8 9 9 8 6 6 5 8 7 5 4 5 4 4 5 4 5 6 8 7 7 6 5 5 6 6 6 6 6 5 5 4 2 0 0 2 4 5 5 6 7 4 2 1 3 2 2 2 2 2 3 4 1 2 3 3 2 3 3 4 4 5 6 5 5 5
7 7 7 7 7 6 6 7 7 6 6 5 5 5 5 4 4 5 5 6 7 6 6 5 5 5 5 5 5 5 4 4 4 4 4 5 5 7 7 7 7 4 4 4 4 4 4 5 5 4 3 1 0 1 2 2 3 5 4 3 3 2 2 2 4 3 3 3 3 5 4 4 1 3 2 3 3 2 3 4 5 4 5 5 5
9 9 9 7 7 8 8 7 8 7 7 5 5 5 5 4 5 5 5 5 5 5 5 5 5 5 6 5 5 4 4 5 5 9 8 4 3 4 5 6 5 5 4 3 2 2 4 2 2 1 1 1 1 2 3 4 3 3 2 3 3 3 1 2 3 4 3 3 4 6 6 5 3 2 3 3 4 4 5 6 6 7 7 7 7
9 7 6 9 9 9 8 8 7 7 7 6 6 6 5 5 5 5 5 5 5 5 5 5 5 6 6 5 4 4 4 4 4 4 4 4 4 3 2 2 2 1 1 1 1 2 2 2 2 2 2 1 2 4 3 5 4 2 3 2 1 0 1 0 3 4 4 4 4 7 6 5 4 4 3 4 4 4 5 5 6 7 6 5 5
3 7 10 9 10 10 10 9 8 8 8 7 7 6 6 6 6 6 6 5 6 6 5 5 5 5 5 5 5 5 4 5 4 4 4 5 5 4 4 4 3 3 2 2 2 2 3 2 2 3 4 2 3 4 4 5 3 3 2 1 1 1 3 1 1 4 5 5 5 8 6 5 5 4 3 4 4 5 6 5 6 7 7 5 3
7 10 9 8 10 9 10 10 9 8 9 8 7 7 6 6 6 6 7 6 5 6 6 5 6 5 5 5 6 5 5 5 5 5 5 5 6 5 5 4 4 5 4 4 4 4 4 4 3 5 3 3 4 4 4 4 4 4 3 2 2 4 3 2 2 3 4 5 5 8 6 5 5 3 2 4 5 6 5 4 5 6 4 2 1
7 9 8 8 9 12 11 10 10 9 9 8 8 7 7 7 7 7 7 7 7 7 6 6 6 6 5 6 6 6 6 6 6 6 6 5 6 6 5 5 5 5 5 5 4 4 4 4 4 4 4 4 5 4 5 4 4 3 3 4 3 4 3 4 3 3 3 4 4 6 8 7 4 3 3 4 4 4 3 4 4 4 3 2 1
10 9 8 8 8 10 10 11 10 10 9 9 9 8 7 7 7 7 7 6 7 7 7 6 7 6 6 7 6 7 6 7 7 7 5 6 6 5 6 6 6 6 5 5 5 5 5 5 5 5 5 5 5 5 4 4 4 3 4 4 4 4 4 4 3 4 3 5 5 5 9 6 4 3 2 2 2 2 2 3 4 3 2 1 1
12 10 10 9 9 9 10 11 11 10 10 10 9 8 8 8 8 8 8 7 7 6 6 6 6 6 6 6 7 7 7 7 7 6 6 6 6 6 5 6 6 6 6 6 6 5 6 5 5 5 5 5 6 6 4 5 4 4 4 5 5 5 5 5 4 5 4 4 4 5 5 6 5 3 2 2 2 1 2 2 2 2 1 1 2
11 12 10 9 9 9 10 9 9 9 8 10 9 9 8 9 8 7 7 7 7 6 6 6 7 6 6 6 6 6 6 6 7 7 6 7 6 6 6 6 6 6 6 7 6 7 6 6 7 6 6 6 6 5 4 5 5 5 4 4 6 5 6 5 4 4 4 4 4 1 5 8 6 4 4 4 2 1 1 1 2 2 2 2 2
12 13 11 9 9 11 11 10 9 9 9 10 9 9 9 9 8 8 8 8 7 7 7 7 7 7 6 6 6 6 6 7 8 7 8 7 7 7 7 6 7 6 7 7 7 7 7 6 6 5 5 5 6 4 5 5 6 6 4 5 6 5 5 5 5 5 4 4 3 3 5 5 7 6 5 4 4 2 1 1 1 2 1 2 2
10 12 12 10 12 11 11 11 10 8 10 11 9 9 8 8 8 9 8 8 8 7 7 7 7 7 6 6 7 7 7 7 8 8 8 7 7 7 7 7 7 7 6 7 7 6 5 5 5 3 4 5 5 6 3 4 5 6 5 5 5 5 6 5 6 5 5 4 3 4 5 4 3 5 4 3 4 4 3 1 1 2 2 1 2
10 9 10 13 11 8 9 9 10 11 10 9 8 8 8 8 7 7 7 8 8 8 8 7 7 7 7 6 6 7 6 6 7 6 6 6 6 6 6 6 6 6 6 6 6 6 6 5 6 4 6 6 7 6 4 5 6 5 4 5 4 6 6 5 6 6 4 4 3 5 6 6 5 5 3 4 4 5 5 3 1 1 2 2 4
8 9 13 14 12 11 9 9 10 11 10 10 9 8 7 7 7 7 7 7 7 8 8 7 7 7 7 8 8 7 7 7 6 7 6 6 6 6 6 7 6 5 6 5 6 6 6 7 6 6 6 6 6 6 6 6 6 6 6 5 6 6 4 6 5 5 5 3 5 4 3 5 5 5 3 3 3 5 4 3 2 2 3 5 6
12 12 12 11 13 12 11 11 11 13 12 13 10 9 8 7 7 7 6 6 6 7 7 8 7 7 7 8 8 8 8 7 7 6 7 6 6 7 7 6 6 6 6 5 5 6 6 6 6 6 6 7 6 6 5 6 5 6 6 6 6 6 6 5 5 5 4 5 5 6 6 5 5 5 4 3 3 3 5 3 3 1 4 7 6
11 10 12 12 13 13 13 14 14 15 13 13 11 9 8 8 8 7 8 7 7 7 7 6 7 7 7 7 7 8 8 8 7 7 7 7 7 7 7 7 6 7 6 6 6 6 6 7 7 6 6 7 7 6 6 6 6 6 6 5 6 6 6 6 6 6 4 5 5 5 5 5 5 5 5 5 4 4 5 6 4 4 5 3 7
12 12 12 14 15 13 13 14 13 13 13 13 12 11 10 9 8 7 7 8 9 8 7 6 7 7 7 8 8 8 8 9 8 8 8 8 8 8 7 7 7 7 7 6 7 7 6 7 8 6 7 7 7 7 8 6 6 6 6 6 6 6 7 6 6 4 6 6 6 7 8 7 6 6 5 5 5 5 4 5 6 6 6 9 10
12 13 12 12 11 11 11 12 11 12 12 11 11 10 9 8 6 7 8 8 7 7 7 7 8 7 8 8 8 8 9 9 9 9 9 8 8 8 8 8 7 8 8 7 7 7 7 7 8 8 6 7 8 7 8 7 6 5 6 7 6 6 7 6 5 5 6 7 8 7 6 6 7 6 6 5 5 5 4 3 3 2 3 8 7
12 11 12 11 12 11 10 10 12 12 10 10 9 9 8 9 9 6 7 9 8 8 8 9 8 9 9 8 8 8 9 10 11 10 10 10 9 9 9 8 8 8 9 9 9 8 10 9 9 9 8 7 6 6 6 6 6 5 6 6 5 4 5 5 4 5 6 6 6 6 6 6 6 7 6 6 5 5 5 4 4 4 3 4 8
11 12 12 13 14 14 12 15 12 11 10 10 10 10 11 9 8 11 12 9 9 9 9 9 9 10 10 10 9 9 9 10 10 10 10 10 10 9 9 8 9 9 9 11 10 11 10 10 9 8 9 8 7 6 6 5 5 4 3 5 6 4 5 4 5 5 6 6 6 7 6 6 6 7 7 6 6 5 5 5 5 4 3 4 3
13 13 15 16 14 12 14 14 10 11 12 13 12 11 11 12 12 12 11 10 9 10 11 10 11 10 10 10 10 9 10 10 10 10 11 11 10 10 10 10 9 10 10 10 10 10 10 9 7 7 6 9 8 7 7 5 3 6 5 4 5 6 6 5 5 6 6 5 6 7 7 8 8 7 6 6 6 6 5 5 5 5 4 4 3
15 15 16 13 12 13 14 12 12 12 12 12 11 13 11 10 11 9 11 8 8 9 9 9 8 9 10 10 10 10 11 11 11 11 11 11 12 11 11 10 11 10 10 10 10 11 11 12 11 11 8 5 7 5 7 9 7 3 1 1 5 2 4 3 4 5 5 6 6 7 7 7 8 7 7 6 6 6 5 5 5 5 4 4 4
12 12 13 15 13 14 14 14 13 13 11 12 12 11 10 8 8 6 6 8 7 7 7 6 7 9 11 10 11 11 12 12 12 11 11 11 12 12 11 10 11 11 11 11 11 12 11 11 11 12 9 9 6 8 8 9 7 7 3 7 2 1 6 6 7 4 6 6 7 8 6 7 6 5 5 7 7 6 5 5 6 5 5 4 4
13 14 14 14 12 17 16 15 13 13 12 11 12 8 6 5 5 2 1 4 2 4 5 8 9 10 10 11 14 12 11 11 11 12 12 13 12 11 11 11 11 11 11 12 12 13 13 12 13 12 13 12 11 7 7 8 10 10 7 4 1 1 6 3 1 5 3 4 5 5 7 7 7 7 7 6 5 6 6 6 5 4 5 5 4
13 14 14 15 14 13 13 12 10 10 11 11 11 9 9 10 8 9 9 8 10 9 12 14 12 12 14 10 8 10 11 11 11 12 13 12 12 12 12 11 11 11 11 12 12 10 12 12 13 13 14 13 11 9 8 5 10 11 10 9 6 6 4 3 3 5 0 3 4 6 6 7 7 8 6 6 7 6 6 7 5 6 5 5 5
15 12 10 11 12 10 10 11 11 10 10 9 10 10 10 10 13 13 12 12 12 12 10 8 9 9 7 9 10 9 10 12 12 11 12 12 12 12 12 12 11 11 10 10 11 13 12 12 10 11 12 11 10 11 12 9 4 7 9 9 3 1 6 6 6 1 2 2 2 5 4 4 6 7 7 7 7 7 6 6 7 6 5 5 5
14 9 10 9 11 12 11 12 11 10 9 9 10 12 12 11 11 12 11 12 13 14 9 9 7 7 9 11 9 9 9 11 11 11 12 12 12 12 12 12 12 12 11 12 13 12 10 9 10 12 10 10 12 13 11 8 11 8 8 9 8 3 2 3 5 8 5 4 5 1 1 4 3 5 7 8 8 8 8 6 7 6 5 5 5
9 10 11 11 11 12 11 10 11 10 9 10 11 12 12 12 12 11 12 12 12 11 6 6 8 7 9 9 9 10 9 9 11 11 12 13 12 13 12 12 12 12 10 11 11 11 12 11 10 10 11 11 10 11 9 10 10 10 6 8 7 7 4 3 2 4 5 4 6 8 5 1 1 3 4 4 6 6 8 8 7 7 6 6 5
9 8 8 7 8 8 9 10 12 11 10 11 12 12 13 11 11 12 15 14 10 9 6 8 7 6 10 10 8 9 9 9 10 11 12 12 12 11 11 13 13 12 10 11 11 11 11 11 11 11 11 12 10 10 12 9 9 8 8 8 9 6 5 5 3 4 2 4 7 8 8 8 8 6 5 6 7 6 6 6 7 6 6 6 6
5 6 7 7 7 9 10 12 13 11 10 11 12 14 13 12 13 14 15 15 13 10 9 10 8 6 10 10 8 8 7 10 9 10 12 12 11 10 11 12 11 11 11 11 11 10 10 9 9 9 10 12 11 11 11 10 8 9 9 9 11 11 12 12 10 7 6 3 2 5 5 7 10 7 8 8 7 6 6 6 7 7 7 6 6
Wind_Direction
213 144 163 154 130 132 118 119 117 105 102 104 104 100 99 99 100 92 104 109 102 100 98 97 97 97 97 96 98 100 101 101 100 93 86 89 90 91 91 89 84 81 79 79 79 79 80 83 87 89 88 86 85 83 78 74 74 72 73 76 76 77 78 76 70 64 66 69 74 74 73 76 73 71 69 71 71 67 65 63 60 56 52 56 57
170 163 154 173 159 135 123 121 112 107 106 100 97 99 105 100 93 97 88 92 93 99 102 105 109 109 105 102 101 101 101 100 96 94 93 88 88 89 88 87 83 80 79 78 78 79 82 85 87 87 86 84 81 80 76 72 69 71 77 81 81 79 80 76 70 64 58 53 50 57 71 69 71 71 68 65 65 67 70 70 68 64 60 58 55
135 138 161 193 169 145 128 122 122 120 117 111 108 99 95 100 103 104 106 107 112 113 112 104 92 100 102 102 103 103 102 103 103 100 94 91 89 89 89 86 83 82 82 81 80 80 82 85 86 86 86 85 80 73 71 69 72 78 85 87 86 86 83 78 72 65 56 50 45 39 31 63 71 71 70 67 62 59 56 62 62 65 68 69 66
129 144 128 146 114 126 129 129 123 117 112 112 111 105 103 103 103 104 109 111 108 99 101 103 103 104 108 110 106 100 97 99 100 98 92 91 90 93 92 87 85 84 84 81 81 81 81 83 86 87 86 82 75 67 62 63 67 81 93 93 91 87 83 80 76 68 59 49 46 39 39 28 62 70 71 69 67 62 56 59 61 60 61 62 61
131 127 117 109 102 114 131 131 131 127 122 121 116 113 109 112 110 106 103 109 114 115 108 108 108 110 108 102 105 104 104 103 102 101 100 99 100 97 95 92 89 87 85 83 82 82 82 82 83 84 81 76 68 63 57 54 66 84 96 97 93 88 85 81 75 70 62 54 47 46 39 30 40 72 69 68 67 66 66 62 60 58 56 57 58
130 125 119 108 109 115 122 140 136 130 130 129 126 118 116 117 116 118 125 123 113 110 112 110 113 112 109 109 108 108 106 104 104 102 102 101 102 101 98 96 96 92 88 86 85 84 83 83 84 84 80 73 66 61 56 55 60 81 100 101 95 90 85 82 77 71 61 55 46 46 39 37 41 66 69 67 66 66 64 62 62 62 58 56 56
128 126 119 117 123 134 133 132 131 132 130 125 121 123 127 126 124 123 122 123 113 112 112 113 114 114 111 109 110 111 111 108 105 104 103 102 95 95 98 102 101 95 92 89 88 86 86 86 85 85 81 73 66 61 58 61 67 76 90 101 98 93 89 85 81 75 67 53 54 51 50 48 46 59 67 66 63 60 64 64 62 60 58 53 52
118 121 125 130 137 142 138 142 136 135 133 128 128 131 130 124 127 130 128 128 124 122 119 119 117 113 109 114 115 111 110 109 109 106 105 103 101 99 103 104 98 94 94 94 93 89 90 88 87 86 80 74 67 61 61 66 69 75 85 91 89 88 88 83 76 66 54 38 37 42 49 55 60 60 68 70 66 65 63 60 60 59 58 58 53
124 124 129 137 143 140 146 154 141 137 133 132 137 134 128 127 129 130 131 135 129 125 124 125 117 116 117 116 119 120 116 109 105 106 107 109 109 109 108 99 98 99 98 95 93 92 90 89 88 87 84 77 69 63 64 67 70 76 85 86 84 83 80 75 69 61 49 40 29 28 41 35 57 67 75 77 75 70 66 60 57 65 67 67 62
132 126 133 134 144 147 152 156 146 139 138 140 136 134 133 126 115 136 134 131 118 126 127 124 120 120 124 124 118 118 116 113 111 111 112 112 108 106 101 102 100 98 95 94 93 92 93 92 90 89 87 81 71 66 64 66 70 77 85 87 88 85 79 72 67 55 57 47 38 29 32 51 63 81 80 77 79 81 79 76 74 76 79 68 67
134 133 133 136 149 152 156 162 157 144 143 141 140 143 141 122 114 137 134 131 130 124 119 120 122 122 123 127 125 117 116 117 117 119 116 113 110 107 106 102 99 96 95 95 96 96 96 96 94 93 90 82 71 68 64 64 68 77 84 89 93 93 87 77 64 56 51 42 33 22 20 34 52 89 84 82 82 86 105 89 72 71 65 65 61
136 136 139 145 155 160 165 163 153 137 141 142 142 144 143 131 132 131 129 131 132 133 132 131 128 127 129 128 124 120 119 117 121 123 119 116 112 108 105 102 100 97 98 99 100 100 99 99 98 96 91 83 75 70 67 67 69 76 85 88 88 87 86 82 74 63 53 42 30 19 20 26 50 80 81 78 83 84 79 75 67 66 67 64 60
141 143 146 151 148 162 154 157 145 142 142 145 146 150 142 139 139 138 136 138 140 139 136 137 128 127 127 128 127 125 123 122 124 124 122 119 117 112 108 105 104 106 107 104 101 101 100 100 99 98 94 86 79 71 69 70 71 76 84 90 89 88 84 85 83 73 60 48 34 18 14 5 50 84 81 81 79 78 74 73 73 69 63 63 64
144 148 154 151 153 158 156 159 160 150 150 147 152 146 144 146 147 148 142 140 146 141 142 141 132 132 131 131 129 131 129 129 128 125 123 122 120 114 110 108 108 109 107 105 103 101 102 102 102 101 97 90 83 77 75 75 74 73 71 72 77 84 94 89 90 86 72 54 38 24 8 341 72 82 80 77 78 80 76 78 73 64 60 63 61
149 156 154 152 159 157 169 165 164 155 151 148 146 146 152 152 156 153 146 146 149 140 145 149 139 136 136 136 134 132 133 132 131 128 121 119 116 115 114 114 113 113 112 107 104 102 102 104 104 103 100 95 88 83 80 77 75 73 72 68 65 61 85 88 81 83 73 58 42 34 1 330 88 86 78 79 78 76 76 73 71 67 60 62 63
149 153 150 154 152 154 156 155 149 145 133 132 144 151 153 155 156 156 154 151 151 147 146 150 150 141 138 139 139 137 136 132 127 121 119 122 122 120 121 119 120 118 114 112 109 108 106 106 105 104 103 100 95 89 85 81 77 72 67 70 67 63 75 98 92 84 85 73 57 40 5 348 101 97 100 91 87 84 83 77 76 77 77 70 73
150 146 148 156 153 147 152 148 150 144 136 135 142 154 157 156 157 158 156 148 148 147 146 150 155 150 137 132 137 137 133 132 130 130 130 129 127 124 124 127 126 127 125 119 115 111 108 107 106 105 103 101 98 93 87 82 73 62 53 54 60 65 89 97 104 105 88 78 79 44 13 14 34 96 100 93 85 86 76 80 84 84 62 60 58
152 150 154 156 154 150 148 151 147 145 147 146 153 159 162 166 167 163 151 144 143 144 147 134 119 117 116 120 120 122 125 120 115 116 119 121 113 123 129 134 134 129 126 122 119 116 113 111 109 108 105 100 100 96 85 75 61 58 59 52 57 68 106 107 101 104 95 78 56 33 23 27 43 31 77 92 90 85 90 87 59 50 44 65 55
154 157 159 156 162 153 154 155 152 152 154 154 159 165 161 165 155 142 137 138 141 142 129 131 132 129 126 125 124 123 120 119 119 117 117 115 112 109 118 129 134 133 132 130 126 124 119 117 116 117 113 111 105 95 79 62 55 47 42 47 54 66 96 117 131 122 113 106 55 35 350 32 59 46 48 104 86 94 67 38 33 31 355 14 10
161 162 166 173 160 159 162 162 160 159 161 161 163 165 168 159 155 145 144 142 141 135 134 138 137 134 131 127 124 120 118 120 120 121 124 120 116 113 115 124 137 140 140 138 136 133 132 131 131 130 129 131 122 105 86 63 43 28 25 34 63 67 86 112 145 152 140 155 154 65 339 350 85 63 53 70 83 44 44 15 19 24 6 360 2
172 175 174 182 170 165 171 166 172 167 165 166 169 165 177 164 157 151 151 148 145 143 143 141 138 137 133 133 130 126 127 127 122 127 124 125 129 129 128 133 143 146 147 145 143 145 147 150 149 149 153 150 104 55 20 7 4 18 11 14 48 87 104 127 164 184 189 186 174 208 255 330 321 322 70 48 8 354 6 347 344 345 349 354 356
179 183 190 180 176 181 175 175 175 176 168 169 171 169 168 169 160 158 156 154 151 148 146 151 150 148 142 141 138 141 139 138 133 126 123 133 137 143 141 128 132 128 147 148 149 156 162 165 168 174 182 180 227 358 350 348 338 351 357 355 357 62 135 158 183 192 215 217 208 222 184 195 295 318 339 347 331 8 351 339 332 336 342 354 337
184 186 196 191 183 183 185 180 180 178 173 172 173 170 168 165 165 161 161 160 158 154 161 161 161 157 160 156 151 152 148 143 143 140 136 139 140 142 138 138 140 152 150 151 154 168 180 180 183 195 196 178 335 326 330 320 323 342 344 332 331 307 127 177 180 198 220 217 223 231 209 188 209 308 314 331 339 344 313 305 301 310 324 335 350
187 188 186 189 188 186 191 186 182 180 175 180 175 173 173 169 169 167 163 167 164 167 168 169 173 170 170 169 161 161 156 155 154 143 133 129 112 116 138 143 148 159 167 146 197 208 209 229 207 241 342 330 277 298 300 295 296 288 292 281 285 298 282 164 209 213 213 234 228 239 224 208 203 240 277 293 303 302 307 311 321 319 345 344 345
187 178 179 191 192 187 186 193 186 179 180 181 177 181 178 172 175 172 171 171 175 177 179 179 182 182 177 172 168 161 156 150 143 146 146 143 146 148 136 134 130 211 157 180 270 276 307 292 314 320 286 250 268 261 254 267 260 267 265 259 232 315 305 218 196 214 233 234 229 242 238 230 209 216 259 288 300 299 295 302 308 313 325 331 340
154 180 196 193 196 189 185 189 187 185 186 181 182 183 175 182 182 179 175 182 181 183 186 189 192 193 183 174 165 161 157 154 160 162 162 163 162 172 182 179 193 202 196 229 238 229 239 261 275 276 261 207 232 244 229 215 207 242 251 233 211 239 245 268 160 201 209 230 238 236 238 253 235 234 269 275 295 298 295 304 309 314 314 322 347
194 203 192 194 196 192 189 187 188 188 191 185 182 177 188 188 183 183 178 188 188 185 193 196 198 193 189 175 169 172 168 171 176 176 178 176 179 181 187 192 191 205 210 209 229 226 223 229 239 246 253 255 245 241 231 219 200 194 222 255 221 222 217 204 238 208 220 218 236 232 233 243 241 245 261 283 287 292 290 301 301 300 307 332 54
205 204 197 190 191 195 191 188 190 185 192 188 184 184 189 187 190 185 193 186 185 194 193 198 200 198 190 184 180 176 175 179 188 188 191 183 189 190 186 181 202 209 206 210 219 226 224 225 230 246 248 249 245 235 229 240 242 223 219 228 242 254 239 239 219 226 226 219 220 227 222 224 238 232 253 281 295 297 286 277 279 284 300 348 165
206 207 204 200 197 193 190 192 191 188 189 186 191 187 187 190 188 190 197 192 195 195 195 196 204 202 194 188 181 183 185 186 189 196 184 194 193 188 186 196 199 208 193 208 211 216 216 216 220 232 228 238 231 235 225 243 248 244 225 243 234 249 257 254 250 241 226 211 223 224 216 208 201 214 232 276 267 281 293 284 277 294 321 270 122
207 204 200 206 203 192 190 194 191 188 188 185 193 188 189 190 193 193 196 193 203 199 196 203 211 204 204 195 190 185 189 189 192 194 183 202 199 194 195 199 203 207 195 209 211 210 213 212 219 227 226 226 226 232 214 237 240 236 230 235 230 225 234 234 240 251 236 230 223 233 197 177 181 187 181 218 232 226 246 275 299 292 281 224 143
198 206 205 204 203 200 198 192 192 187 183 189 190 192 188 193 193 194 195 199 203 200 200 205 212 215 207 197 192 190 185 191 191 189 197 198 200 195 206 202 208 211 203 213 204 209 211 204 205 211 214 218 225 227 209 233 246 243 228 229 242 229 224 230 239 243 258 254 236 170 161 172 165 154 184 201 180 182 266 276 284 266 227 94 110
199 205 203 199 197 203 203 196 191 187 183 192 189 192 191 193 192 191 198 200 198 204 203 203 211 215 208 202 194 190 186 190 192 193 194 197 199 199 207 200 211 212 204 208 205 210 205 211 209 208 212 210 228 231 220 219 237 238 221 223 232 234 238 232 234 243 245 243 214 136 159 165 162 165 186 180 162 154 163 276 255 282 295 186 135
207 202 199 195 199 198 201 203 194 189 190 193 192 195 192 193 188 195 198 196 198 203 205 205 208 213 212 206 207 196 193 191 197 197 196 198 195 197 203 207 208 204 200 205 203 204 212 222 236 224 225 222 229 234 225 222 229 237 219 231 223 226 230 233 240 239 240 242 181 150 157 155 158 160 165 167 161 145 126 87 3 312 273 302 258
198 201 196 201 197 197 197 200 201 197 197 197 193 195 196 197 194 190 192 193 198 202 210 205 203 208 211 208 208 212 203 199 193 206 200 200 199 197 197 205 206 204 200 199 203 207 215 214 227 195 220 205 211 225 215 239 248 258 238 238 226 231 229 233 240 239 236 234 158 162 165 159 157 155 150 159 147 136 135 141 174 271 297 252 237
193 196 199 200 195 195 191 200 197 203 199 202 197 199 199 200 200 194 189 188 192 202 207 205 201 202 203 212 207 205 212 207 198 193 206 206 205 210 209 209 202 202 201 208 203 213 209 214 206 200 214 218 217 226 212 221 231 242 245 243 233 236 236 238 241 239 231 187 144 145 147 145 151 149 150 142 121 115 121 148 166 188 237 228 245
196 197 198 195 199 197 193 196 194 201 202 203 202 198 197 203 206 207 197 193 192 197 200 201 200 197 200 207 210 206 203 206 201 193 196 203 208 214 217 212 207 202 211 212 207 214 214 218 214 195 204 225 220 237 221 232 237 246 253 253 252 250 237 239 241 235 213 156 164 160 161 163 159 155 156 153 138 126 120 126 135 289 259 245 223
197 194 195 194 200 199 195 197 195 198 201 202 202 199 192 198 204 205 207 199 203 206 204 199 197 196 200 205 204 205 205 201 198 194 194 200 207 215 218 212 205 206 212 214 213 215 210 214 219 213 201 213 213 228 234 222 233 237 250 255 250 242 240 232 222 215 155 166 168 162 158 166 162 158 160 164 154 138 117 106 85 54 7 286 177
203 197 197 194 198 197 198 199 197 196 197 198 199 199 199 195 198 202 203 208 212 212 211 203 207 205 201 206 202 202 203 202 197 194 199 200 203 208 216 212 205 208 214 213 218 214 215 206 219 217 210 209 215 216 227 228 226 238 244 244 247 231 231 227 223 201 166 169 176 174 179 168 165 168 168 168 162 149 134 113 90 59 35 35 7
205 200 197 199 197 199 200 202 197 194 197 196 197 200 199 200 195 196 205 213 215 215 211 213 214 210 211 209 203 203 204 204 201 196 200 201 205 208 212 209 202 205 210 214 218 216 215 216 216 225 221 217 212 213 216 217 226 230 237 243 244 242 236 227 211 193 189 182 180 180 159 168 167 170 170 170 164 150 138 127 109 76 46 37 25
203 201 198 198 200 198 199 201 202 194 192 194 191 196 196 197 199 203 216 215 213 212 214 218 214 218 218 210 209 208 205 206 205 203 204 203 207 208 210 207 205 202 208 213 215 212 212 214 222 219 222 233 237 226 216 215 234 237 247 261 248 249 259 231 206 205 194 183 177 165 175 170 168 171 172 170 163 153 145 143 126 126 77 57 37
201 200 199 202 201 198 192 204 201 192 188 189 192 191 196 200 206 206 212 206 209 208 215 215 216 219 217 215 211 213 209 209 211 206 208 208 211 210 209 211 207 207 210 215 211 213 213 212 216 214 216 222 236 219 230 197 219 273 271 267 283 260 251 245 222 214 201 191 176 174 173 164 173 170 177 168 162 157 155 147 143 126 122 86 66
206 199 202 204 201 197 200 205 193 197 197 194 192 196 198 197 195 206 205 204 202 204 214 212 214 216 216 216 216 214 211 211 210 208 210 208 210 211 211 212 205 211 214 215 214 214 213 215 208 223 220 216 228 203 210 138 232 217 239 288 289 284 252 243 233 225 207 196 183 180 173 174 173 175 165 165 164 162 161 155 142 137 128 121 105
199 200 206 202 198 200 207 202 199 197 202 198 193 202 200 201 198 203 199 210 216 214 217 214 213 217 218 218 218 215 213 216 210 209 210 211 212 211 214 211 211 208 212 218 215 216 213 212 207 210 216 229 231 215 199 189 211 173 141 327 274 291 312 273 256 230 205 193 182 182 182 178 176 170 167 162 163 168 164 159 151 146 144 136 128
201 204 202 202 201 204 205 202 202 200 200 202 204 205 200 201 209 206 208 204 206 213 218 219 214 218 225 217 220 216 214 216 212 211 215 216 214 215 214 213 215 209 211 215 215 218 212 213 211 214 206 223 217 231 204 201 182 132 225 215 225 138 302 254 219 250 190 191 184 192 182 183 172 160 155 167 175 167 170 163 159 156 155 148 143
205 204 202 201 202 205 206 201 200 200 202 199 201 193 181 188 189 170 162 224 273 193 208 227 217 218 223 217 221 213 217 218 215 214 215 218 217 218 215 215 215 212 211 217 217 217 213 211 208 208 207 214 221 221 221 199 202 196 169 112 66 242 225 257 224 266 172 182 220 204 194 173 170 172 173 175 164 171 164 169 162 158 159 154 151
209 211 206 204 203 207 204 200 201 200 203 200 192 185 190 188 179 193 203 204 218 208 211 215 210 213 218 224 227 216 217 219 217 217 217 217 220 218 218 217 218 217 214 218 222 220 219 215 211 210 215 215 218 210 225 215 210 207 205 199 165 183 187 228 124 260 358 240 198 204 200 189 177 172 176 165 169 171 174 169 168 168 167 161 156
215 208 204 208 209 208 202 201 202 202 199 195 185 186 194 198 199 203 207 208 217 226 223 221 218 223 222 225 222 218 218 219 222 219 219 218 221 221 219 219 220 220 218 219 223 222 220 218 214 215 218 213 211 223 217 209 211 238 223 223 215 185 152 126 210 65 278 230 187 197 217 199 189 179 178 182 171 164 181 170 172 173 173 163 157
214 200 202 201 202 206 200 202 204 203 196 188 185 191 198 200 203 210 213 218 219 230 211 222 218 212 214 224 221 222 217 219 223 222 221 220 220 223 220 219 221 222 216 219 223 223 224 225 218 220 221 216 212 222 220 199 197 217 205 223 231 226 226 153 152 178 175 187 231 257 246 189 196 213 193 179 175 177 169 177 175 179 173 170 163
210 201 202 200 202 202 200 198 203 202 197 187 189 196 201 200 203 208 217 225 226 234 215 217 216 210 222 224 221 225 222 222 223 224 223 223 219 222 221 222 223 224 220 227 228 226 224 224 220 219 221 222 220 225 225 215 208 218 168 226 223 229 227 228 161 169 169 191 235 202 198 34 200 243 231 210 193 181 178 178 179 176 174 170 172
212 208 207 202 202 197 198 197 206 202 197 192 193 198 201 200 205 211 218 225 222 231 208 225 220 208 227 228 223 224 222 224 225 226 229 226 225 223 225 227 227 228 224 229 230 230 230 229 227 224 224 228 225 224 227 224 214 217 200 192 203 212 225 241 215 198 271 209 202 204 195 185 205 215 188 208 202 195 185 176 174 179 180 176 177
214 204 207 202 197 194 198 202 208 203 197 197 193 201 200 202 210 212 217 225 221 216 219 232 225 216 229 231 223 225 222 226 223 228 230 230 228 227 227 230 231 229 229 230 231 232 234 234 235 233 230 228 228 226 230 231 217 215 207 200 206 199 204 209 206 200 193 193 202 227 199 202 206 202 210 199 202 197 187 182 181 186 185 184 180